Location: *
(46.1333°S, 161.2167°W)
Time: 09:18:53
(UTC+00:00)

Cosmos 2298 Rocket - Pass Details

Date: 28 October 2020
Orbit: 776 x 783 km, 74.0° (Epoch: 04 December)

Event Time Altitude Azimuth Distance (km) Brightness Sun altitude
Exits shadow 12:13:47 37° 251° (WSW) 1,224 4.9 -26.0°
Maximum altitude 12:14:13 37° 240° (WSW) 1,212 5.0 -25.9°
Drops below altitude 10° 12:19:14 10° 172° (S) 2,377 7.4 -25.5°
Sets 12:21:50 0° 163° (SSE) 3,313 8.5 -25.3°
